COSMOS 252 DEB, 3788

Orbit data source: Space-Track

COSMOS 252 DEB, 3788 is space debris in LEO originally from a launch on Fri, 01 Nov 1968 UTC launched from the Tyuratam Missile And Space Complex (TTMTR). Debris objects in space refer to the collection of defunct objects orbiting the Earth. Examples of debris include non-operational satellites, rocket bodies, and fragments generated from explosions, collisions, or faulty payload assembly.

Loading next visibility...
Identifier
3788, 1968-097BA
Orbit
LEO
Country
Flag of CISCIS
Related business
Manufacturer
Unknown
Mission
Spacecraft
Bus & Motor
Unknown
Mass
Unknown
Launch date (UTC)
1968-11-01 (57 years ago)
Launch vehicle
Unknown
Launch site
Tyuratam Missile And Space Complex (TTMTR)
Object type
Payload
Rocket body
Debris
Shape & HBR
Unknown shape, 0.1 m
Radar Cross Section
Small (<0.1 m²)

Expand to show TLE details & history
Last TLE update: 20 hours ago

TLE from 20 hours ago
0 COSMOS 252 DEB
1 03788U 68097BA  26121.48814199 -.00000056  00000-0  68773-4 0  9999
2 03788  61.8742 207.4331 0576953   8.5748  73.4972 11.88464517494872
Epoch: 2026-05-01T11:42Z
TLE epoch observation values (Epoch: 2026-05-01T11:42:55.467Z)
Latitude
61.95413°
Longitude
-100.83569°
Altitude
1,634.819 km
Speed
7.107 km/s
True Right ascension
19h 37m 15s
True Declination
61° 49' 37"
Sunlit
Object was in daylight at epoch
Visualization orbit readout
Latitude
Unknown
Longitude
Unknown
Altitude
Unknown
Speed
Unknown
Apparent Right ascension
Unknown
Apparent Declination
Unknown
Sunlit
N/A
Visualization observer readout
Local Sidereal Time
15:25:44
Azimuth
Unknown
Elevation
Unknown
Doppler factor
Unknown
Orbital elements
Apogee altitude
2,199.938 km
Perigee altitude
1,264.102 km
Semi-major axis
8,110.157 km
Eccentricity
0.0577
Inclination
61.8742°
RAAN
207.4331°
Arg. of periapsis
8.5748°
True anomaly
79.95498°
Mean anomaly
73.4972°
Eccentric anomaly
76.71443°
Mean motion
2.97166 °/min
Orbital period
121.14 mins
BSTAR
0.000068773

Documentation

Showing up to 5 results
|